When you browse on this site, cookies collect data to enhance your experience and personalize the content and advertising you see.
Visit our Privacy Policy to learn more. By continuing to use the site, you agree to this use of cookies and data.

Hourly Weather Brisbane

Today, 7 July, Tuesday

Time Temperature Precipitation Wind Pressure Humidity
00:00 +13°C° 0 mm 2 mps 767 mmHg 79%
01:00 +12°C° 0 mm 2 mps 767 mmHg 80%
02:00 +12°C° 0 mm 2 mps 767 mmHg 80%
03:00 +10°C° 0 mm 2 mps 767 mmHg 80%
04:00 +10°C° 0 mm 2 mps 767 mmHg 76%
05:00 +10°C° 0 mm 2 mps 767 mmHg 76%
06:00 +10°C° 0 mm 2 mps 767 mmHg 76%
07:00 +10°C° 0 mm 2 mps 768 mmHg 76%
08:00 +13°C° 0 mm 2 mps 768 mmHg 69%
09:00 +15°C° 0 mm 2 mps 768 mmHg 62%
10:00 +18°C° 0 mm 2 mps 768 mmHg 54%
11:00 +19°C° 0 mm 2 mps 767 mmHg 50%
12:00 +21°C° 0 mm 2 mps 767 mmHg 45%
13:00 +23°C° 0 mm 2 mps 766 mmHg 40%
14:00 +23°C° 0 mm 2 mps 766 mmHg 43%
15:00 +21°C° 0 mm 3 mps 766 mmHg 47%
16:00 +20°C° 0 mm 3 mps 766 mmHg 50%
17:00 +19°C° 0 mm 3 mps 767 mmHg 56%
18:00 +18°C° 0 mm 3 mps 767 mmHg 62%
19:00 +16°C° 0 mm 3 mps 768 mmHg 67%
20:00 +16°C° 0 mm 3 mps 768 mmHg 70%
21:00 +14°C° 0 mm 3 mps 768 mmHg 74%
22:00 +14°C° 0 mm 3 mps 768 mmHg 77%
23:00 +14°C° 0.1 mm 2 mps 768 mmHg 79%

Tomorrow, 8 July, Wednesday

Time Temperature Precipitation Wind Pressure Humidity
00:00 +14°C° 0.1 mm 2 mps 768 mmHg 80%
01:00 +13°C° 0.1 mm 2 mps 768 mmHg 82%
02:00 +13°C° 0 mm 2 mps 768 mmHg 84%
03:00 +13°C° 0 mm 2 mps 768 mmHg 85%
04:00 +12°C° 0 mm 2 mps 767 mmHg 86%
05:00 +12°C° 0 mm 2 mps 768 mmHg 87%
06:00 +12°C° 0 mm 2 mps 768 mmHg 88%
07:00 +12°C° 0 mm 2 mps 768 mmHg 88%
08:00 +14°C° 0 mm 2 mps 768 mmHg 78%
09:00 +16°C° 0 mm 2 mps 768 mmHg 69%
10:00 +18°C° 0 mm 2 mps 768 mmHg 59%
11:00 +19°C° 0 mm 3 mps 768 mmHg 57%
12:00 +21°C° 0 mm 3 mps 767 mmHg 56%
13:00 +22°C° 0 mm 4 mps 767 mmHg 55%
14:00 +20°C° 0.3 mm 4 mps 767 mmHg 61%
15:00 +19°C° 0.3 mm 5 mps 767 mmHg 66%
16:00 +17°C° 0.3 mm 5 mps 767 mmHg 72%
17:00 +17°C° 0.2 mm 4 mps 767 mmHg 76%
18:00 +17°C° 0.2 mm 4 mps 768 mmHg 79%
19:00 +15°C° 0.2 mm 4 mps 768 mmHg 83%
20:00 +15°C° 0.2 mm 4 mps 768 mmHg 82%
21:00 +15°C° 0.2 mm 4 mps 769 mmHg 82%
22:00 +15°C° 0.2 mm 4 mps 769 mmHg 81%
23:00 +16°C° 0.1 mm 3 mps 769 mmHg 82%

Day after tomorrow, 9 July, Thursday

Time Temperature Precipitation Wind Pressure Humidity
00:00 +14°C° 0.1 mm 3 mps 768 mmHg 82%
01:00 +14°C° 0.1 mm 3 mps 768 mmHg 83%
02:00 +14°C° 0.1 mm 3 mps 768 mmHg 82%
03:00 +14°C° 0.1 mm 3 mps 768 mmHg 81%
04:00 +14°C° 0.1 mm 3 mps 768 mmHg 81%
05:00 +14°C° 0.1 mm 3 mps 768 mmHg 81%
06:00 +14°C° 0.1 mm 3 mps 769 mmHg 81%
07:00 +13°C° 0.1 mm 3 mps 769 mmHg 82%
08:00 +16°C° 0.1 mm 3 mps 769 mmHg 76%
09:00 +17°C° 0.1 mm 4 mps 769 mmHg 70%
10:00 +18°C° 0.1 mm 4 mps 770 mmHg 64%
11:00 +19°C° 0.1 mm 4 mps 769 mmHg 61%
12:00 +20°C° 0.1 mm 4 mps 768 mmHg 58%
13:00 +20°C° 0.1 mm 5 mps 768 mmHg 56%
14:00 +20°C° 0 mm 5 mps 768 mmHg 56%
15:00 +20°C° 0 mm 4 mps 768 mmHg 56%
16:00 +20°C° 0 mm 4 mps 768 mmHg 56%
17:00 +19°C° 0 mm 4 mps 768 mmHg 60%
18:00 +17°C° 0 mm 3 mps 768 mmHg 64%
19:00 +16°C° 0 mm 3 mps 769 mmHg 69%
20:00 +16°C° 0 mm 3 mps 769 mmHg 70%
21:00 +16°C° 0 mm 2 mps 769 mmHg 72%
22:00 +15°C° 0 mm 2 mps 769 mmHg 74%
23:00 +15°C° 0 mm 2 mps 769 mmHg 74%

10 July, Friday

Time Temperature Precipitation Wind Pressure Humidity
00:00 +15°C° 0 mm 2 mps 768 mmHg 74%
01:00 +14°C° 0 mm 2 mps 768 mmHg 74%
02:00 +14°C° 0 mm 2 mps 768 mmHg 75%
03:00 +14°C° 0 mm 2 mps 768 mmHg 75%
04:00 +14°C° 0 mm 1 mps 768 mmHg 76%
05:00 +14°C° 0 mm 1 mps 768 mmHg 76%
06:00 +14°C° 0 mm 1 mps 768 mmHg 77%
07:00 +14°C° 0 mm 1 mps 768 mmHg 77%
08:00 +15°C° 0 mm 1 mps 768 mmHg 71%
09:00 +18°C° 0 mm 1 mps 768 mmHg 65%
10:00 +20°C° 0 mm 1 mps 768 mmHg 59%
11:00 +20°C° 0 mm 2 mps 767 mmHg 57%
12:00 +21°C° 0 mm 2 mps 767 mmHg 55%
13:00 +23°C° 0 mm 2 mps 766 mmHg 53%
14:00 +21°C° 0 mm 2 mps 766 mmHg 55%
15:00 +21°C° 0 mm 2 mps 765 mmHg 57%
16:00 +21°C° 0 mm 2 mps 765 mmHg 58%
17:00 +20°C° 0 mm 2 mps 765 mmHg 63%
18:00 +19°C° 0 mm 1 mps 766 mmHg 68%
19:00 +18°C° 0 mm 1 mps 766 mmHg 72%
20:00 +18°C° 0 mm 1 mps 766 mmHg 75%
21:00 +16°C° 0 mm 1 mps 766 mmHg 79%
22:00 +16°C° 0 mm 1 mps 766 mmHg 82%
23:00 +15°C° 0 mm 1 mps 765 mmHg 83%

11 July, Saturday

Time Temperature Precipitation Wind Pressure Humidity
00:00 +14°C° 0 mm 0 mps 765 mmHg 85%
01:00 +14°C° 0 mm 0 mps 765 mmHg 87%
02:00 +14°C° 0 mm 1 mps 764 mmHg 88%
03:00 +14°C° 0 mm 1 mps 764 mmHg 88%
04:00 +14°C° 0 mm 1 mps 764 mmHg 89%
05:00 +14°C° 0 mm 1 mps 764 mmHg 89%
06:00 +13°C° 0 mm 1 mps 764 mmHg 90%
07:00 +13°C° 0 mm 1 mps 764 mmHg 90%
08:00 +15°C° 0 mm 1 mps 764 mmHg 82%
09:00 +18°C° 0 mm 1 mps 764 mmHg 74%
10:00 +20°C° 0 mm 1 mps 764 mmHg 65%
11:00 +22°C° 0 mm 1 mps 763 mmHg 60%
12:00 +23°C° 0 mm 1 mps 763 mmHg 55%
13:00 +24°C° 0 mm 1 mps 762 mmHg 49%
14:00 +24°C° 0 mm 1 mps 762 mmHg 51%
15:00 +23°C° 0 mm 1 mps 762 mmHg 53%
16:00 +23°C° 0 mm 1 mps 761 mmHg 56%
17:00 +22°C° 0 mm 1 mps 762 mmHg 62%
18:00 +20°C° 0 mm 1 mps 762 mmHg 69%
19:00 +17°C° 0 mm 2 mps 762 mmHg 76%
20:00 +18°C° 0 mm 1 mps 762 mmHg 78%
21:00 +18°C° 0 mm 1 mps 763 mmHg 81%
22:00 +16°C° 0 mm 1 mps 763 mmHg 83%
23:00 +16°C° 0 mm 1 mps 763 mmHg 84%

12 July, Sunday

Time Temperature Precipitation Wind Pressure Humidity
00:00 +16°C° 0 mm 1 mps 762 mmHg 84%
01:00 +15°C° 0 mm 1 mps 762 mmHg 84%
02:00 +15°C° 0 mm 1 mps 762 mmHg 83%
03:00 +15°C° 0 mm 1 mps 762 mmHg 83%
04:00 +15°C° 0 mm 1 mps 762 mmHg 82%
05:00 +14°C° 0 mm 1 mps 762 mmHg 83%
06:00 +14°C° 0 mm 1 mps 763 mmHg 83%
07:00 +14°C° 0 mm 1 mps 763 mmHg 84%
08:00 +16°C° 0 mm 1 mps 763 mmHg 76%
09:00 +20°C° 0 mm 1 mps 763 mmHg 67%
10:00 +22°C° 0 mm 1 mps 763 mmHg 59%
11:00 +23°C° 0 mm 1 mps 762 mmHg 57%
12:00 +24°C° 0 mm 1 mps 762 mmHg 54%
13:00 +25°C° 0 mm 1 mps 761 mmHg 51%
14:00 +24°C° 0.2 mm 1 mps 761 mmHg 56%
15:00 +23°C° 0.2 mm 1 mps 761 mmHg 61%
16:00 +23°C° 0.2 mm 1 mps 761 mmHg 66%
17:00 +21°C° 1.2 mm 1 mps 761 mmHg 73%
18:00 +20°C° 1.2 mm 1 mps 761 mmHg 81%
19:00 +19°C° 1.2 mm 1 mps 762 mmHg 88%
20:00 +19°C° 0.6 mm 1 mps 762 mmHg 89%
21:00 +19°C° 0.6 mm 1 mps 762 mmHg 90%
22:00 +18°C° 0.6 mm 1 mps 762 mmHg 90%
23:00 +18°C° 0.7 mm 1 mps 762 mmHg 90%
Show more